[Iaude] MPEC J55: 2024 JA1 [a=2.29,e=0.61,i=23.1,H=23.2]
    mpec at cfa.harvard.edu 
    mpec at cfa.harvard.edu
       
    Fri May  3 23:49:08 EDT 2024
    
    
  
M.P.E.C. 2024-J55                                   Issued 2024 May 4, 03:46 UT
     The Minor Planet Electronic Circulars contain information on unusual
         minor planets, routine data on comets and natural satellites,
         and occasional editorial announcements.  They are published
    on behalf of Division F of the International Astronomical Union by the
          Minor Planet Center, Smithsonian Astrophysical Observatory,
                          Cambridge, MA 02138, U.S.A.
			  
             Prepared using the Tamkin Foundation Computer Network
                              MPC at CFA.HARVARD.EDU
            URL https://www.minorplanetcenter.net/    ISSN 1523-6714
                                    2024 JA1                                    
Observations:
     K24J01A*KC2024 05 02.82602 12 34 06.23 +03 35 44.2          19.4 GXEJ055L51
     K24J01A KC2024 05 02.82726 12 34 06.36 +03 35 24.6          19.7 GXEJ055L51
     K24J01A KC2024 05 02.82850 12 34 06.52 +03 35 04.6          19.2 GXEJ055L51
     K24J01A KC2024 05 02.86448 12 34 10.51 +03 25 29.0          19.3 GXEJ055L51
     K24J01A KC2024 05 02.86628 12 34 10.75 +03 25 01.4          19.7 GXEJ055L51
     K24J01A KC2024 05 02.86813 12 34 10.93 +03 24 30.0          19.7 GXEJ055L51
     K24J01A KC2024 05 02.87674712 34 13.96 +03 22 13.6          20.0 GXEJ055I93
     K24J01A KC2024 05 02.87943112 34 14.25 +03 21 31.0          19.8 GXEJ055I93
     K24J01A KC2024 05 02.88201012 34 14.51 +03 20 49.6          19.7 GXEJ055I93
     K24J01A KB2024 05 02.88394612 34 14.81 +03 20 20.0          19.8 GXEJ055958
     K24J01A KB2024 05 02.88805412 34 15.27 +03 19 14.4          19.6 GXEJ055958
     K24J01A KC2024 05 02.88925212 34 14.15 +03 20 16.0          19.6 GVEJ055M21
     K24J01A KB2024 05 02.89216112 34 15.79 +03 18 08.0          19.5 GXEJ055958
     K24J01A HC2024 05 02.90244612 34 15.53 +03 16 46.4                VEJ055M21
     K24J01A KB2024 05 02.97765012 34 28.058+02 56 50.35         20.2 VZEJ055Y05
     K24J01A KB2024 05 02.98294412 34 28.615+02 55 27.23         19.7 VZEJ055Y05
     K24J01A KB2024 05 02.98816412 34 29.191+02 54 04.61         20.3 VZEJ055Y05
     K24J01A 1C2024 05 03.00496 12 34 27.89 +02 48 16.6          20.2 VXEJ055033
     K24J01A 1C2024 05 03.00534 12 34 27.98 +02 48 10.5          20.8 VXEJ055033
     K24J01A 1C2024 05 03.00571 12 34 27.97 +02 48 05.0          21.2 VXEJ055033
     K24J01A 1C2024 05 03.00608 12 34 28.01 +02 47 58.9          20.8 VXEJ055033
     K24J01A 1C2024 05 03.00657 12 34 28.11 +02 47 51.4          20.7 VXEJ055033
     K24J01A 1C2024 05 03.00709 12 34 28.17 +02 47 43.4          20.8 VXEJ055033
     K24J01A mC2024 05 03.13322612 34 49.015+02 15 11.34         20.22GVEJ055I52
     K24J01A mC2024 05 03.13539112 34 49.228+02 14 38.29         19.58GVEJ055I52
     K24J01A mC2024 05 03.13772812 34 49.494+02 14 01.93         20.17GVEJ055I52
     K24J01A mC2024 05 03.13793212 34 49.512+02 13 58.94         19.97GVEJ055I52
     K24J01A KC2024 05 03.14055112 34 49.46 +02 13 15.2          19.8 GXEJ055858
     K24J01A KC2024 05 03.14704312 34 50.13 +02 11 34.9          20.2 GXEJ055858
     K24J01A KC2024 05 03.15347112 34 50.81 +02 09 55.0          19.8 GXEJ055858
     K24J01A KB2024 05 03.15545 12 34 50.294+02 09 21.20         19.8 GVEJ055734
     K24J01A KB2024 05 03.16021 12 34 50.856+02 08 07.08         20.0 GVEJ055734
     K24J01A KB2024 05 03.16498 12 34 51.298+02 06 53.96         20.2 GVEJ055734
     K24J01A !C2024 05 03.23508 12 35 00.15 +01 48 57.6          20.1 GVEJ055673
     K24J01A !C2024 05 03.23652 12 35 00.28 +01 48 35.3                VEJ055673
     K24J01A !C2024 05 03.23737 12 35 00.39 +01 48 22.6                VEJ055673
     K24J01A KC2024 05 03.86911 12 36 18.75 -00 47 56.7          19.4 GXEJ055L51
     K24J01A KC2024 05 03.87067 12 36 18.90 -00 48 18.8          20.2 GXEJ055L51
     K24J01A KC2024 05 03.87221 12 36 19.06 -00 48 40.9          19.9 GXEJ055L51
     K24J01A KC2024 05 04.13721112 36 52.73 -01 50 55.4          20.7 GVEJ055H21
     K24J01A KC2024 05 04.13939412 36 52.93 -01 51 25.8          20.7 GVEJ055H21
     K24J01A KC2024 05 04.14262212 36 53.24 -01 52 10.7          20.8 GVEJ055H21
Observer details:
033 Karl Schwarzschild Observatory, Tautenburg.  Observers S. Melnikov, C.
    Hogner, F. Ludwig, M. Hartmann, B. Stecklum.  Measurer B. Stecklum.
    1.34-m f/3 Schmidt + CCD.
673 Table Mountain Observatory, Wrightwood.  Observer J. Pittichova.  1.0-m
    f/15 reflector + CCD.
734 Farpoint Observatory, Eskridge.  Observers D. Cromer, G. Hug, D. Goodin,
    R. Valentine, P. Lessig.  Measurer G. Hug.  0.69-m f/3.54 reflector + CMO.
858 Tebbutt Observatory, Edgewood.  Observer F. B. Zoltowski.  0.51-m f/8.1
    Schmidt-Cassegrain + CCD.
958 Observatoire de Dax.  Observer P. Dupouy.  0.50-m f/4.5 Reflector + CMO.
H21 Astronomical Research Observatory, Westfield.  Observer R. Holmes.
    Measurers T. Linder, R. Holmes, L. Horn.  0.81-m f/4.0 astrograph + CCD.
I52 Steward Observatory, Mt. Lemmon Station.  Observer V. F. Carvajal.
    Measurers T. Beuden, V. F. Carvajal, D. Fay, J. B. Fazekas, D. C. Fuls, A.
    R. Gibbs, A. D. Grauer, H. Groeller, J. K. Hogan, R. A. Kowalski, S. M.
    Larson, G. J. Leonard, D. Rankin, R. L. Seaman, F. C. Shelly, K. W.
    Wierzchos.  1.0-m prime focus + CCD.
I93 St Pardon de Conques.  Observer F. Losse.  0.40-m f/3.7 reflector + CCD.
L51 MARGO, Nauchnyi.  Observer G. Borisov.  0.50-m f/1.9 reflector + CCD.
M21 Schiaparelli Southern Observatory, Hakos.  Observers A. Aletti, F.
    Bellini, L. Buzzi, G. Galli.  Measurer L. Buzzi.  0.36-m f/8.4 reflector +
    CCD.
Y05 SONEAR Wykrota-CEAMIG, Serra da Piedade.  Observers C. Jacques, A.
    Caetano, E. Pimentel.  Measurer C. Jacques.  0.45-m f/2.9 reflector + CMO.
Orbital elements:
2024 JA1                                                 Earth MOID = 0.0780 AU
Epoch 2024 Mar. 31.0 TT = JDT 2460400.5                 MPC                     
M   4.24561              (2000.0)            P               Q                  
n   0.28486432     Peri.  116.98322     -0.87812576     -0.40445225             
a   2.2875855      Node    40.63664     +0.16046202     -0.75221159             
e   0.6118179      Incl.   23.10495     +0.45071842     -0.52018852             
P   3.46           H   23.25          G   0.15           U   9                  
Residuals in seconds of arc
240502 L51  0.3+  0.1-    240502 Y05  0.5-  0.0     240503 858  0.1-  0.0
240502 L51  0.1+  0.2+    240502 Y05  0.4-  0.4+    240503 858  0.2-  0.3-
240502 L51  0.5+  0.0     240502 Y05  0.1+  0.0     240503 734  0.3-  0.4+
240502 L51  0.1+  0.0     240503 033  0.6-  0.4-    240503 734  0.6+  0.1-
240502 L51  0.6+  1.1+    240503 033  0.1+  0.5-    240503 734  0.4-  0.5+
240502 L51  0.2+  0.8-    240503 033  0.7-  0.2-    240503 673  0.1-  0.5-
240502 I93  0.2+  0.0     240503 033  0.8-  0.5-    240503 673  0.4-  0.7-
240502 I93  0.1+  0.2+    240503 033  0.2-  0.3-    240503 673  0.1-  0.4-
240502 I93  0.3-  0.1-    240503 033  0.2-  0.1-    240503 L51  0.5+  0.5-
240502 958  0.1+  0.3+    240503 I52  0.1+  0.4-    240503 L51  0.4+  0.3-
240502 958  0.2+  0.1+    240503 I52  0.2-  0.1+    240503 L51  0.4+  0.3-
240502 M21  0.2-  0.2+    240503 I52  0.0   0.0     240504 H21  0.2+  0.1+
240502 958  1.1+  1.0-    240503 I52  0.0   0.1+    240504 H21  0.0   0.0
240502 M21  0.2-  0.7+    240503 858  0.2+  0.2-    240504 H21  0.1-  0.0
Ephemeris:
2024 JA1                 a,e,i = 2.29, 0.61, 23                  q = 0.8880
Date    TT    R. A. (2000) Decl.     Delta      r    Elong.  Phase     V
2024 04 04    01 50 53.2 +71 34 12   0.2608  0.9276    66.5    98.5    23.7
...
2024 04 19    10 38 31.9 +77 20 56   0.1299  1.0071    87.5    85.1    21.8
...
2024 04 27    12 16 02.7 +36 30 04   0.09806 1.0617   122.0    53.5    20.3
...
2024 05 03    12 34 29.4 +02 50 43   0.1196  1.1067   143.6    32.7    20.2
2024 05 04    12 36 35.7 -01 17 56   0.1264  1.1144   145.2    31.1    20.3
2024 05 05    12 38 32.8 -05 00 33   0.1339  1.1222   146.2    30.0    20.4
...
2024 05 11    12 48 13.1 -20 15 31   0.1879  1.1704   146.0    28.9    21.2
...
2024 05 19    12 58 49.3 -30 08 56   0.2735  1.2373   141.4    30.6    22.2
...
2024 06 03    13 18 16.0 -37 33 26   0.4546  1.3673   133.4    32.6    23.6
A. U. Tomatic                (C) Copyright 2024 MPC           M.P.E.C. 2024-J55
    
    
More information about the Iaude
mailing list